Weather History for Kushiro Airport, Japan

Change the Weather History Date:

Sunday, December 30, 2012

  Actual Average Record
Temperature  
Mean Temperature 29 °F -  
Max Temperature 39 °F 27 °F 41 °F (2007)
Min Temperature 19 °F 14 °F 8 °F (2000)
Degree Days  
Heating Degree Days 36    
Moisture  
Dew Point 30 °F    
Average Humidity 91    
Maximum Humidity 100    
Minimum Humidity 74    
Precipitation  
Precipitation 0.00 in - - ()
Sea Level Pressure  
Sea Level Pressure 29.71 in    
Wind  
Wind Speed 8 mph ()    
Max Wind Speed 21 mph    
Max Gust Speed -    
Visibility 2.2 miles    
Events Fog , Rain , Snow    
Averages and records for this station are not official NWS values.
T = Trace of Precipitation, MM = Missing Value Source: Averaged Metar Reports

Daily Weather History Graph

Daily Weather History Graph

Search for Another Location

Airport:

Trip Planner

Search our weather history database for the weather conditions in past years. The results will help you decide how hot, cold, wet, or windy it might be!

Date:

Astronomy

Dec. 30, 2012 Rise Set
Actual Time 6:54 AM JST 3:57 PM JST
Civil Twilight 6:22 AM JST 4:29 PM JST
Nautical Twilight 5:46 AM JST 5:05 PM JST
Astronomical Twilight 5:11 AM JST 5:39 PM JST
Moon 5:53 PM JST (12/30) 7:38 AM JST (12/30)
Length of Visible Light 10h 07m
Length of Day
9h 02m
Full, 97% of the Moon is Illuminated
Dec 30
Full
Jan 5
Last Quarter
Jan 12
New
Jan 19
First Quarter
Jan 27
Full

Hourly Weather History & Observations

Time (JST) Temp. Windchill Dew Point Humidity Pressure Visibility Wind Dir Wind Speed Gust Speed Precip Events Conditions
7:00 AM 19.4 °F 12.8 °F 12.2 °F 74% 30.06 in 6.2 mi North 4.6 mph - N/A   Mostly Cloudy
7:27 AM 19.4 °F 10.4 °F 14.0 °F 80% 30.06 in 6.2 mi NNW 6.9 mph - N/A   Light Small Hail Showers
8:00 AM 21.2 °F 13.6 °F 15.8 °F 80% 30.04 in 6.2 mi NNW 5.8 mph - N/A   Light Small Hail Showers
8:35 AM 21.2 °F 13.6 °F 15.8 °F 80% 30.01 in 6.2 mi North 5.8 mph - N/A Snow Light Snow Showers
9:00 AM 21.2 °F 13.6 °F 15.8 °F 80% 30.01 in 6.2 mi NNE 5.8 mph - N/A Snow Light Snow Showers
9:43 AM 24.8 °F 17.9 °F 17.6 °F 74% 29.95 in 6.2 mi North 5.8 mph - N/A Snow Light Small Hail Showers
10:00 AM 28.4 °F 23.3 °F 24.8 °F 86% 29.95 in 4.3 mi North 4.6 mph - N/A   Light Small Hail Showers
11:00 AM 33.8 °F 22.2 °F 28.4 °F 81% 29.89 in 6.2 mi SSE 20.7 mph - N/A Snow Light Small Hail Showers
11:16 AM 33.8 °F 23.9 °F 30.2 °F 87% 29.86 in 4.3 mi SSE 15.0 mph - N/A Snow Light Snow Showers
11:24 AM 33.8 °F 24.3 °F 30.2 °F 87% 29.86 in - SE 13.8 mph - N/A Snow Light Snow Showers
11:35 AM 33.8 °F 22.5 °F 32.0 °F 93% 29.86 in - SSE 19.6 mph - N/A Snow Light Snow Showers
11:49 AM 33.8 °F 23.9 °F 30.2 °F 87% 29.83 in 1.9 mi SSE 15.0 mph - N/A Snow Light Snow Showers
12:00 PM 33.8 °F 28.6 °F 32.0 °F 93% 29.83 in 1.5 mi Variable 5.8 mph - N/A Snow Light Snow Showers
12:10 PM 33.8 °F 27.0 °F 32.0 °F 93% 29.83 in 1.5 mi Variable 8.1 mph - N/A Rain , Snow Light Snow Showers
12:17 PM 33.8 °F 29.6 °F 32.0 °F 93% 29.80 in 1.5 mi Variable 4.6 mph - N/A Rain Small Hail
1:00 PM 32.0 °F 26.4 °F 30.2 °F 93% 29.77 in 1.6 mi North 5.8 mph - N/A Snow Small Hail
1:17 PM 28.4 °F 22.2 °F 26.6 °F 93% 29.74 in 1.9 mi North 5.8 mph - N/A Snow Light Snow Showers
1:30 PM 28.4 °F 23.3 °F 24.8 °F 86% 29.74 in 1.4 mi North 4.6 mph - N/A Snow Light Snow Showers
1:40 PM 28.4 °F 23.3 °F 26.6 °F 93% 29.74 in 1.2 mi North 4.6 mph - N/A Snow Small Hail
2:00 PM 28.4 °F 21.2 °F 26.6 °F 93% 29.71 in 1.9 mi NNW 6.9 mph - N/A   Small Hail
2:13 PM 30.2 °F 23.4 °F 26.6 °F 86% 29.71 in - NNW 6.9 mph - N/A Rain Light Freezing Rain
2:16 PM 28.4 °F 21.2 °F 28.4 °F 100% 29.71 in 2.2 mi NNW 6.9 mph - N/A Rain Light Freezing Rain
3:00 PM 30.2 °F 23.4 °F 28.4 °F 93% 29.68 in 2.2 mi NNW 6.9 mph - N/A   Mostly Cloudy
3:13 PM 30.2 °F 23.4 °F 28.4 °F 93% 29.65 in 2.2 mi NNW 6.9 mph - N/A   Mostly Cloudy
3:26 PM 32.0 °F 26.4 °F 30.2 °F 93% 29.65 in - NNW 5.8 mph - N/A Fog , Rain Rain
3:40 PM 33.8 °F 29.6 °F 32.0 °F 93% 29.62 in 1.9 mi NNW 4.6 mph - N/A   Mostly Cloudy
3:48 PM 33.8 °F - 30.2 °F 87% 29.62 in 1.4 mi Variable 2.3 mph - N/A Rain Rain Showers
4:00 PM 33.8 °F 28.6 °F 32.0 °F 93% 29.62 in 1.5 mi NW 5.8 mph - N/A Rain Rain Showers
4:12 PM 37.4 °F 33.8 °F 33.8 °F 87% 29.62 in 1.4 mi Variable 4.6 mph - N/A   Mostly Cloudy
4:36 PM 37.4 °F 27.2 °F 37.4 °F 100% 29.59 in 1.1 mi SSE 19.6 mph - N/A Fog , Rain Light Fog
5:00 PM 39.2 °F 29.6 °F 37.4 °F 93% 29.56 in 1.0 mi SSE 19.6 mph - N/A Rain Light Rain Showers
5:22 PM 37.4 °F 27.8 °F 37.4 °F 100% 29.53 in 0.9 mi SSE 17.3 mph - N/A Rain Light Rain Showers
5:31 PM 37.4 °F 28.5 °F 37.4 °F 100% 29.53 in 0.4 mi SSE 15.0 mph - N/A Fog , Rain Light Fog
5:38 PM 39.2 °F 31.6 °F 37.4 °F 93% 29.53 in 0.3 mi SSE 12.7 mph - N/A Fog , Rain Fog
5:45 PM 39.2 °F 32.0 °F 37.4 °F 93% 29.50 in 0.2 mi SSE 11.5 mph - N/A Fog , Rain Fog
6:00 PM 39.2 °F 32.0 °F 39.2 °F 100% 29.50 in 0.3 mi SSE 11.5 mph - N/A Fog , Rain Light Fog
6:02 PM 39.2 °F 32.0 °F 39.2 °F 100% 29.47 in 0.2 mi SSE 11.5 mph - N/A Fog , Rain Light Fog
6:08 PM 39.2 °F 32.5 °F 39.2 °F 100% 29.47 in 0.2 mi SSE 10.4 mph - N/A Fog , Rain Light Fog
6:21 PM 37.4 °F 30.3 °F 37.4 °F 100% 29.47 in 0.2 mi South 10.4 mph - N/A Fog , Rain Light Fog
7:00 PM 39.2 °F 32.5 °F 37.4 °F 93% 29.47 in 0.2 mi SSW 10.4 mph - N/A Fog , Rain Light Fog
7:12 PM 39.2 °F 32.5 °F 37.4 °F 93% 29.44 in 0.2 mi SSW 10.4 mph - N/A Fog , Rain Light Fog
7:27 PM 39.2 °F 33.0 °F 37.4 °F 93% 29.44 in 0.1 mi SSW 9.2 mph - N/A Fog , Rain Light Fog
8:00 PM 39.2 °F 35.0 °F 39.2 °F 100% 29.42 in 0.1 mi SSW 5.8 mph - N/A Fog , Rain Light Fog